Home   Weather   Pori   Past weeks

Flag for Finland Past Weather in Pori, Finland — Yesterday and Last 2 Weeks

Now
63 °F

Passing clouds.


Feels Like: 63 °F
Forecast: 58 / 68 °F
Wind: 7 mph from South

Location: Pori Airport

Current Time: Aug 17, 2017 at 10:39:34 pm

Latest Report: Aug 17, 2017 at 10:20 pm


Visibility: N/A

Pressure: 30.01 "Hg

Humidity: 88%

Dew Point: 59 °F

Location of PoriLocation

Past Weather in Pori — Graph

°F

Pori Temperature Yesterday

Maximum temperature yesterday: 70 °F (at 2:20 pm)
Minimum temperature yesterday: 48 °F (at 5:50 am)
Average temperature yesterday: 60 °F

High & Low Weather Summary for the Past Weeks

 TemperatureHumidityPressure
High72 °F (Aug 11, 1:20 pm)100% (Aug 4, 11:20 pm)30.24 "Hg (Aug 4, 11:20 pm)
Low45 °F (Aug 14, 2:50 am)43% (Aug 15, 5:50 pm)29.33 "Hg (Aug 4, 11:20 pm)
Average61 °F80%29.85 "Hg
* Reported Aug 2 9:20 pm — Aug 17 9:20 pm, Pori. Weather by CustomWeather, © 2017

Note: Actual official high and low records may vary slightly from our data, if they occured in-between our weather recording intervals... More about our weather records

Advertising

Pori Weather History for the Previous 24 Hours

Scroll right to see more
 ConditionsComfort  
Time TempWeatherWind HumidityBarometerVisibility
9:20 pm
Thu, Aug 17
66 °FBroken clouds.8 mph73%30.01 "HgN/A
8:50 pm68 °FBroken clouds.6 mph73%30.01 "HgN/A
8:20 pm68 °FPartly sunny.5 mph73%30.01 "HgN/A
7:50 pm70 °FBroken clouds.5 mph69%30.01 "HgN/A
7:20 pm72 °FBroken clouds.7 mph65%30.01 "HgN/A
6:50 pm72 °FPartly sunny.6 mph65%30.01 "HgN/A
6:20 pm72 °FPartly sunny.6 mph61%30.04 "HgN/A
5:50 pm72 °FScattered clouds.6 mph61%30.04 "HgN/A
5:20 pm72 °FPartly sunny.6 mph57%30.04 "HgN/A
4:50 pm72 °FPartly sunny.8 mph61%30.04 "HgN/A
3:50 pm72 °FBroken clouds.7 mph57%30.04 "HgN/A
3:20 pm72 °FPartly sunny.6 mph57%30.04 "HgN/A
2:50 pm72 °FPartly sunny.6 mph57%30.07 "HgN/A
2:20 pm72 °FPartly sunny.6 mph57%30.07 "HgN/A
1:50 pm70 °FScattered clouds.3 mph60%30.07 "HgN/A
1:20 pm70 °FBroken clouds.6 mph60%30.07 "HgN/A
12:50 pm70 °FPartly sunny.9 mph60%30.07 "HgN/A
12:20 pm70 °FScattered clouds.6 mph60%30.09 "HgN/A
11:50 am68 °FScattered clouds.8 mph64%30.09 "HgN/A
11:20 am68 °FPartly sunny.5 mph69%30.09 "HgN/A
10:50 am66 °FScattered clouds.8 mph68%30.09 "HgN/A
9:50 am64 °FSunny.6 mph78%30.09 "Hg10 mi
9:20 am64 °FSunny.2 mph78%30.09 "Hg10 mi
8:50 am63 °FPassing clouds.2 mph83%30.09 "HgN/A
8:20 am63 °FPassing clouds.1 mph83%30.09 "HgN/A
7:50 am59 °FScattered clouds.2 mph94%30.09 "HgN/A
7:20 am57 °FScattered clouds.1 mph94%30.09 "HgN/A
6:50 am55 °FPartly sunny.2 mph94%30.09 "HgN/A
6:20 am55 °FFog.2 mph94%30.09 "Hg2 mi
5:50 am57 °FBroken clouds.No wind94%30.09 "HgN/A
5:20 am57 °FPartly cloudy.1 mph94%30.07 "HgN/A
4:50 am57 °FPassing clouds.2 mph94%30.07 "HgN/A
4:20 am59 °FPartly cloudy.3 mph88%30.07 "HgN/A
3:50 am59 °FPartly cloudy.2 mph94%30.07 "HgN/A
3:20 am59 °FPassing clouds.5 mph88%30.07 "HgN/A
2:50 am61 °FLight rain. Passing clouds.3 mph88%30.07 "HgN/A
2:20 am61 °FPartly cloudy.2 mph88%30.07 "HgN/A
1:50 am61 °FPartly cloudy.5 mph88%30.07 "HgN/A
1:20 am61 °FPassing clouds.3 mph88%30.07 "HgN/A
12:50 am63 °FPassing clouds.3 mph83%30.07 "HgN/A
12:20 am63 °FLight rain. Mostly cloudy.5 mph77%30.07 "HgN/A
11:50 pm
Wed, Aug 16
63 °FOvercast.7 mph77%30.07 "HgN/A
11:20 pm63 °FOvercast.5 mph77%30.07 "HgN/A
10:50 pm63 °FLight rain. Mostly cloudy.6 mph77%30.07 "HgN/A
Weather by CustomWeather, © 2017

See weather overviewHow to use our weather pages